Retour au catalogue

DIGUI TONGXIN SHIYAN WEI.

ActifMilitairePO
NORAD 52718·PAYLOAD·🇨🇳 China
Ce nom de satellite n'a pas encore été confirmé par des sources officielles.

Lancé May 20, 2022 depuis Jiuquan Satellite Launch Center

Loading…

Prochains Passages (prochaines 24 heures)

TLE

FraisSource: Space-Track

Époque: Sep 14, 2026, 13:39 UTC

1 52718U 22056C   26257.56936509  .00000102  00000-0  52560-4 0  9998
2 52718  86.0097 344.2278 0016840 102.0737 258.2330 14.04400888221436

Suivez DIGUI TONGXIN SHIYAN WEI. en temps réel avec AllMySat

Download on the App Store